Weather in Shchepkin

Russia / Rostov Oblast     47°22′35″N   39°47′36″E
temp.,
°C
wind,
m/s
gust,
m/s
humid.,
%
clouds,
%
prec.,
mm/h
press.,
hPa
HPBL,
m
25 january, mon
mon2500:000ese61095100 0.0 1018317
03:00−1ese4895100 0.0 1017262
06:00−2ese479498 0.0 1017210
09:00−1ese478872 0.0 1017181
12:00+2ese57830 0.0 1017255
15:00+3ese478722 0.0 1016243
18:00+1ese599030 0.0 1016209
21:00+1ese6129161 0.0 1015290
26 january, tue
tue2600:00+1ese71487100 0.0 1014303
03:00+1ese61184100 0.0 1013252
06:00+1se5888100 1.8 1014200
09:00+3sse4897100 3.4 1015172
12:00+5s26100100 0.0 1016270
15:00+5sse3395100 0.0 101548
18:00+3ese449591 0.0 101662
21:00+3se5109296 0.0 1016211
27 january, wed
wed2700:00+3se51480100 0.0 1015299
03:00+3se3486100 0.0 101473
06:00+2ese3487100 0.0 101366
09:00+3ese51086100 0.0 1013238
12:00+4ese6981100 0.0 1013343
15:00+4e6980100 0.0 1011379
18:00+3ese71391100 0.0 1010439
21:00+3ese71491100 0.0 1009497
28 january, thu
thu2800:00+3ese61292100 0.0 1008433
03:00+2e71194100 0.0 1007285
06:00+2e71296100 0.0 1006346
09:00+3se61094100 0.0 1007512
12:00+4ese5790100 0.0 1007291
15:00+4ese5989100 0.0 1005309
18:00+3ese4893100 0.0 1006296
21:00+3ese5895100 1.3 1007282
29 january, fri
fri2900:00+2ese3697100 0.0 1007163
03:00+2se2297100 0.0 100649
06:00+3nw1197100 0.0 100722
09:00+3wnw2397100 0.0 100878
12:00+6nne118192 0.0 1009358
15:00+6w227495 0.1 1009672
18:00+4wsw478799 0.0 1010206
21:00+2sw4780100 0.0 1011208